Flag for Trinidad and Tobago Weather past 2 weeks in Chaguanas, Trinidad and Tobago

Now
88 °F

Scattered clouds.


Feels Like: 91 °F
Forecast: 74 / 87 °F
Wind: 20 mph from East

Location: Piarco International Airport - Trinidad

Current Time: Feb 28, 2015 at 1:38:21 PM

Latest Report: Feb 28, 2015 at 1:00 PM


Visibility: N/A

Pressure: 29.98 "Hg

Humidity: 52%

Dew point: 68 °F

Location of ChaguanasLocation

Historic Weather in Chaguanas — Graph

°F

Chaguanas temperature yesterday

Maximum temperature yesterday: 84 °F (at 10:00 AM)
Minimum temperature yesterday: 75 °F (at 12:00 AM)
Average temperature yesterday: 79 °F

Past Weeks' High & Low Weather Summary

 TemperatureHumidityPressure
High91 °F (Feb 17, 1:00 PM)100% (Feb 26, 11:00 PM)30.04 "Hg (Feb 26, 11:00 PM)
Low68 °F (Feb 19, 6:00 AM)43% (Feb 23, 12:00 PM)29.83 "Hg (Feb 19, 4:00 PM)
Average80 °F74%29.94 "Hg
* Reported Feb 13 12:00 Noon — Feb 28 12:00 Noon, Chaguanas, Weather by CustomWeather, © 2015

Note: Actual official high and low records may vary slightly from our data, if they occured in-between our weather recording intervals... More about our weather records

Advertising

Chaguanas weather history for previous 24 hours

 ConditionsComfort  
Time TempWeatherWind HumidityBarometerVisibility
12:00 PM
Sat, Feb 28
88 °FScattered clouds.18 mph46%29.98 "HgN/A
11:00 AM88 °FPassing clouds.17 mph49%30.01 "HgN/A
10:00 AM86 °FPassing clouds.20 mph49%30.01 "HgN/A
9:00 AM84 °FPassing clouds.16 mph55%30.01 "HgN/A
8:00 AM82 °FPassing clouds.12 mph62%29.98 "HgN/A
7:00 AM77 °FPassing clouds.7 mph74%29.95 "HgN/A
6:00 AM75 °FPassing clouds.13 mph74%29.92 "HgN/A
5:00 AM77 °FPassing clouds.12 mph74%29.92 "HgN/A
4:00 AM75 °FPassing clouds.No wind83%29.92 "HgN/A
3:00 AM75 °FPassing clouds.No wind83%29.92 "HgN/A
2:00 AM77 °FPassing clouds.7 mph79%29.92 "HgN/A
1:00 AM77 °FPassing clouds.12 mph79%29.95 "HgN/A
12:00 AM75 °FPassing clouds.7 mph89%29.95 "HgN/A
11:00 PM
Fri, Feb 27
77 °FPassing clouds.8 mph83%29.95 "HgN/A
10:00 PM79 °FPassing clouds.12 mph79%29.95 "HgN/A
9:00 PM77 °FPassing clouds.3 mph89%29.95 "HgN/A
8:00 PM79 °FPassing clouds.7 mph79%29.95 "HgN/A
7:00 PM79 °FPassing clouds.9 mph79%29.92 "HgN/A
6:00 PM79 °FPartly sunny.14 mph79%29.92 "HgN/A
5:00 PM79 °FScattered clouds.12 mph84%29.92 "HgN/A
4:00 PM84 °FScattered showers. Broken clouds.14 mph66%29.89 "Hg4 mi
3:00 PM82 °FScattered clouds.16 mph74%29.92 "HgN/A
2:00 PM81 °FSprinkles. Partly sunny.17 mph84%29.92 "Hg4 mi
1:00 PM81 °FPartly sunny.13 mph79%29.95 "HgN/A
Weather by CustomWeather, © 2015

See weather overviewHow to use our weather pages